JA1RBY-13 Weather Reports


time (UTC)temp
C
wind
direction
speed
KPH
gust
KPH
rain 1hr
cm
rain 24hr
cm
rain mn
cm
humidity
%
barometer
mb
20260509200731 11 26 3.2 3.2 0.00 0.00 0.00 59 1020.3
20260509195230 11 15 3.2 3.2 0.00 0.00 0.00 59 1020.2
20260509193730 11 30 1.6 3.2 0.00 0.00 0.00 58 1020.0
20260509192231 11 38 1.6 3.2 0.00 0.00 0.00 59 1019.9
20260509185231 11 26 0.0 1.6 0.00 0.00 0.00 58 1019.6
20260509183732 11 19 1.6 3.2 0.00 0.00 0.00 58 1019.4
20260509182230 11 19 0.0 0.0 0.00 0.00 0.00 58 1019.1
20260509180731 11 19 0.0 0.0 0.00 0.00 0.00 59 1019.1
20260509175230 11 19 0.0 0.0 0.00 0.00 0.00 58 1018.9
20260509173731 12 19 0.0 0.0 0.00 0.00 0.00 57 1018.8
20260509172231 12 18 3.2 6.4 0.00 0.00 0.00 56 1018.7
20260509170730 12 18 0.0 0.0 0.00 0.00 0.00 57 1018.5
20260509165231 12 19 1.6 1.6 0.00 0.00 0.00 57 1018.5
20260509163730 12 8 0.0 4.8 0.00 0.00 0.00 58 1018.5
20260509162231 12 5 1.6 3.2 0.00 0.00 0.00 59 1018.4
20260509155230 12 3 0.0 0.0 0.00 0.00 0.00 57 1018.5
20260509153731 13 353 3.2 6.4 0.00 0.00 0.00 57 1018.3
20260509150731 13 17 1.6 3.2 0.00 0.00 0.00 55 1018.5
20260509145230 13 14 1.6 4.8 0.00 0.00 0.00 55 1018.5
20260509140731 14 10 1.6 3.2 0.00 0.00 0.00 54 1017.7
20260509135230 14 12 0.0 4.8 0.00 0.00 0.00 57 1017.5
20260509133730 14 15 0.0 1.6 0.00 0.00 0.00 56 1017.5
20260509132232 15 12 0.0 1.6 0.00 0.00 0.00 56 1017.3
20260509130730 15 12 0.0 0.0 0.00 0.00 0.00 55 1017.3
20260509125230 15 17 1.6 3.2 0.00 0.00 0.00 56 1017.2
20260509123730 15 166 0.0 0.0 0.00 0.00 0.00 55 1017.0
20260509122230 16 166 0.0 0.0 0.00 0.00 0.00 54 1017.0
20260509120730 16 166 0.0 0.0 0.00 0.00 0.00 53 1016.9
20260509115232 16 166 0.0 0.0 0.00 0.00 0.00 52 1016.9
20260509113732 16 166 0.0 0.0 0.00 0.00 0.00 52 1016.9
20260509112231 16 166 0.0 1.6 0.00 0.00 0.00 52 1016.6
20260509110731 17 166 1.6 3.2 0.00 0.00 0.00 52 1016.4
20260509105231 17 166 1.6 3.2 0.00 0.00 0.00 52 1016.1
20260509103731 17 186 1.6 4.8 0.00 0.00 0.00 50 1016.1
20260509102232 17 196 3.2 4.8 0.00 0.00 0.00 43 1015.8
20260509085230 19 247 6.4 9.7 0.00 0.00 0.00 38 1014.4
20260509083731 19 250 9.7 11.3 0.00 0.00 0.00 37 1014.2
20260509062230 22 265 12.9 24.1 0.00 0.00 0.00 31 1012.0
20260509053731 22 228 9.7 14.5 0.00 0.00 0.00 30 1011.8
20260509052231 22 254 12.9 17.7 0.00 0.00 0.00 30 1011.9
20260509045230 23 245 14.5 19.3 0.00 0.00 0.00 31 1011.6
20260509043730 24 273 11.3 17.7 0.00 0.00 0.00 28 1011.6
20260509042230 25 202 6.4 12.9 0.00 0.00 0.00 28 1011.7
20260509040731 24 243 4.8 8.0 0.00 0.00 0.00 25 1011.6
20260509035231 24 151 8.0 14.5 0.00 0.00 0.00 19 1011.5
20260509032230 25 12 3.2 3.2 0.00 0.00 0.00 18 1011.2
20260509025231 24 55 3.2 8.0 0.00 0.00 0.00 20 1011.2
20260509022232 25 94 3.2 11.3 0.00 0.00 0.00 17 1011.3
20260509020732 24 60 3.2 4.8 0.00 0.00 0.00 18 1011.5
20260509015231 25 23 4.8 9.7 0.00 0.00 0.00 17 1011.5
20260509012231 23 39 6.4 9.7 0.00 0.00 0.00 18 1011.6
20260509010731 22 115 8.0 11.3 0.00 0.00 0.00 29 1011.4
20260509005232 22 155 8.0 12.9 0.00 0.00 0.00 27 1011.2
20260509003731 23 271 4.8 9.7 0.00 0.00 0.00 26 1010.9
20260509002231 22 101 4.8 6.4 0.00 0.00 0.00 26 1010.7
20260508235230 22 175 1.6 4.8 0.00 0.00 0.00 28 1010.2
20260508233731 22 215 4.8 16.1 0.00 0.00 0.00 27 1010.1
20260508230731 22 234 3.2 4.8 0.00 0.00 0.00 22 1009.7
20260508223730 20 81 4.8 6.4 0.00 0.00 0.00 31 1009.3
20260508222232 20 163 4.8 9.7 0.00 0.00 0.00 30 1009.0
20260508220732 20 165 4.8 6.4 0.00 0.00 0.00 31 1008.8
20260508215231 19 203 3.2 8.0 0.00 0.00 0.00 35 1008.7
20260508212231 17 264 0.0 0.0 0.00 0.00 0.00 42 1008.3
20260508210731 16 264 0.0 0.0 0.00 0.00 0.00 44 1008.2
20260508205231 15 264 0.0 0.0 0.00 0.00 0.00 45 1007.6
20260508203731 16 264 0.0 0.0 0.00 0.00 0.00 45 1007.5